Back to catalog

FENGYUN 1C DEB

AlivePO
NORAD 31209·DEBRIS·🇨🇳 China

Launched May 10, 1999 from Taiyuan Satellite Launch Center

Loading…

Next Passes (next 24 hours)

TLE

AgingSource: Space-Track

Epoch: Sep 7, 2026, 00:58 UTC

1 31209U 99025BKP 26250.04089794  .00004238  00000-0  11567-2 0  9995
2 31209  98.8864   2.7239 0020751 258.2369 101.6494 14.47749661686850

Track FENGYUN 1C DEB in real time with AllMySat

Download on the App Store